User: anonymous   Login
Location: Corcelles
(46.1547°N, 4.7234°E)
Time: 13:53:55
(UTC+00:00)
Language:

Cosmos 1544 - Orbit

View from above orbital plane
View from above orbital plane
View from above satellite
View from above satellite

Ground track
Ground track

The orbit data is extracted from the following two-line orbital elements,

1 14819U 84027A   20274.96302096  .00001521  00000-0  54007-4 0  9993
2 14819  82.4805 257.4773 0014963 120.4779 239.7940 15.28123524999217
Epoch (UTC): 30 September 2020 23:06:45
Eccentricity: 0.0014963
inclination: 82.4805°
perigee height: 471 km
apogee height: 491 km
right ascension of ascending node: 257.4773°
argument of perigee: 120.4779°
revolutions per day: 15.28123524
mean anomaly at epoch: 239.7940°
orbit number at epoch: 99921

The dashed part of the orbit path shows where the satellite is in the earth's shadow,  

DLR